Location: Ferchesar
(52.6477°N, 12.4298°E)
Time: 05:01:26
(UTC+01:00)

Vanguard 1 Rocket - Pass Details

Date: 15 December 2021
Orbit: 651 x 4224 km, 34.3° (Epoch: 15 January)

Event Time Altitude Azimuth Distance (km) Brightness Sun altitude
Exits shadow 03:57:21 27° 190° (S) 3,549 10.1 -37.5°
Maximum altitude 03:57:40 27° 188° (S) 3,582 10.2 -37.5°
Drops below altitude 10° 04:10:46 10° 140° (SE) 6,178 11.9 -35.5°
Sets 04:17:44 0° 131° (SE) 7,750 12.7 -34.5°
